,,Stat1,,Stat2,,Stat3,,Stat4,,Wind1,,Wind1,
time,status,PR1M_SUM,status,RH1M_AVG,status,SR1M_AVG,status,TA1M_AVG,status,W1dAve1m,status,W1sAve1m,
1999-08-12, 00:00:00,VALID,0,VALID,96.5758,VALID,0,VALID,20.5755,VALID,112,VALID,0.29988,
1999-08-12, 00:01:00,VALID,0,VALID,96.5262,VALID,0.0169808,VALID,20.5688,VALID,108,VALID,0.554899,
1999-08-12, 00:02:00,VALID,0,VALID,96.5148,VALID,0.0169808,VALID,20.5661,VALID,92,VALID,0.737253,
1999-08-12, 00:03:01,VALID,0,VALID,96.4983,VALID,0,VALID,20.5596,VALID,103,VALID,0.998047,
1999-08-12, 00:04:00,VALID,0,VALID,96.5072,VALID,0,VALID,20.5532,VALID,96,VALID,1.27534,
1999-08-12, 00:05:00,VALID,0,VALID,96.5517,VALID,0,VALID,20.5305,VALID,95,VALID,1.43129,
1999-08-12, 00:06:00,VALID,0,VALID,96.6089,VALID,0,VALID,20.5211,VALID,95,VALID,1.16447,
1999-08-12, 00:07:00,VALID,0,VALID,96.6407,VALID,-0.0339617,VALID,20.5084,VALID,97,VALID,1.36776,
1999-08-12, 00:08:00,VALID,0,VALID,96.7335,VALID,-0.0169808,VALID,20.5017,VALID,88,VALID,1.33479,
1999-08-12, 00:09:00,VALID,0,VALID,96.8225,VALID,-0.0169808,VALID,20.4818,VALID,85,VALID,1.14535,
1999-08-12, 00:10:00,VALID,0,VALID,96.9242,VALID,0,VALID,20.4823,VALID,84,VALID,0.794727,
1999-08-12, 00:11:00,VALID,0,VALID,96.9306,VALID,-0.0169808,VALID,20.4726,VALID,57,VALID,0.732052,
1999-08-12, 00:12:00,VALID,0,VALID,96.9738,VALID,-0.0169808,VALID,20.4654,VALID,106,VALID,0.686883,
1999-08-12, 00:13:00,VALID,0,VALID,96.9751,VALID,-0.0169808,VALID,20.4567,VALID,91,VALID,0.865986,
1999-08-12, 00:14:00,VALID,0,VALID,97.0578,VALID,-0.0169808,VALID,20.4109,VALID,68,VALID,0.894215,
1999-08-12, 00:15:01,VALID,0,VALID,97.2345,VALID,-0.0169808,VALID,20.4015,VALID,95,VALID,0.93565,
1999-08-12, 00:16:00,VALID,0,VALID,97.3134,VALID,0,VALID,20.3819,VALID,87,VALID,0.771793,
1999-08-12, 00:17:00,VALID,0,VALID,97.3579,VALID,-0.0339617,VALID,20.353,VALID,81,VALID,0.704127,
1999-08-12, 00:18:00,VALID,0,VALID,97.452,VALID,0,VALID,20.35,VALID,80,VALID,0.585093,
1999-08-12, 00:19:00,VALID,0,VALID,97.5054,VALID,-0.0169808,VALID,20.3404,VALID,59,VALID,0.432031,
1999-08-12, 00:20:00,VALID,0,VALID,97.5753,VALID,-0.0509425,VALID,20.3409,VALID,43,VALID,0.0814145,
1999-08-12, 00:21:00,VALID,0,VALID,97.5969,VALID,-0.0169808,VALID,20.3242,VALID,309,VALID,0.240234,
1999-08-12, 00:22:00,VALID,0,VALID,97.5626,VALID,-0.0339617,VALID,20.315,VALID,335,VALID,0.310855,
1999-08-12, 00:23:00,VALID,0,VALID,97.4939,VALID,0,VALID,20.2916,VALID,3,VALID,0.16654,
1999-08-12, 00:24:00,VALID,0,VALID,97.5308,VALID,0,VALID,20.3078,VALID,51,VALID,0.364654,
1999-08-12, 00:25:00,VALID,0,VALID,97.5931,VALID,0,VALID,20.3396,VALID,106,VALID,0.455387,
1999-08-12, 00:26:01,VALID,0,VALID,97.5422,VALID,0,VALID,20.3525,VALID,95,VALID,0.645232,
1999-08-12, 00:27:00,VALID,0,VALID,97.4723,VALID,0,VALID,20.359,VALID,98,VALID,0.553248,
1999-08-12, 00:28:00,VALID,0,VALID,97.3973,VALID,-0.0169808,VALID,20.3592,VALID,91,VALID,1.02217,
1999-08-12, 00:29:00,VALID,0,VALID,97.265,VALID,-0.0169808,VALID,20.3473,VALID,92,VALID,1.02796,
1999-08-12, 00:30:00,VALID,0,VALID,97.265,VALID,-0.0169808,VALID,20.3466,VALID,96,VALID,1.10076,
1999-08-12, 00:31:00,VALID,0,VALID,97.2193,VALID,-0.0339617,VALID,20.3304,VALID,98,VALID,0.934696,
1999-08-12, 00:32:00,VALID,0,VALID,97.2396,VALID,-0.0339617,VALID,20.3304,VALID,95,VALID,0.815705,
1999-08-12, 00:33:00,VALID,0,VALID,97.265,VALID,0,VALID,20.3398,VALID,94,VALID,0.974219,
1999-08-12, 00:34:00,VALID,0,VALID,97.2269,VALID,0,VALID,20.3207,VALID,108,VALID,1.03237,
1999-08-12, 00:35:00,VALID,0,VALID,97.2688,VALID,0.0169808,VALID,20.3108,VALID,116,VALID,0.953325,
1999-08-12, 00:36:00,VALID,0,VALID,97.2638,VALID,0,VALID,20.2976,VALID,135,VALID,0.539679,
1999-08-12, 00:37:01,VALID,0,VALID,97.3286,VALID,0,VALID,20.3075,VALID,130,VALID,0.487542,
1999-08-12, 00:38:00,VALID,0,VALID,97.3184,VALID,0,VALID,20.3105,VALID,122,VALID,0.598157,
1999-08-12, 00:39:00,VALID,0,VALID,97.321,VALID,0,VALID,20.321,VALID,123,VALID,0.421113,
1999-08-12, 00:40:00,VALID,0,VALID,97.2638,VALID,0,VALID,20.3175,VALID,155,VALID,0.683689,
1999-08-12, 00:41:00,VALID,0,VALID,97.19,VALID,0,VALID,20.308,VALID,137,VALID,0.558183,
1999-08-12, 00:42:00,VALID,0,VALID,97.1849,VALID,0,VALID,20.3048,VALID,171,VALID,0.477734,
1999-08-12, 00:43:00,VALID,0,VALID,97.1048,VALID,0,VALID,20.2817,VALID,146,VALID,0.643792,
1999-08-12, 00:44:00,VALID,0,VALID,97.0743,VALID,0,VALID,20.2695,VALID,106,VALID,0.693257,
1999-08-12, 00:45:00,VALID,0,VALID,97.0425,VALID,-0.0339617,VALID,20.2757,VALID,116,VALID,0.457933,
1999-08-12, 00:46:00,VALID,0,VALID,97.0133,VALID,-0.0339617,VALID,20.2846,VALID,77,VALID,0.502745,
1999-08-12, 00:47:00,VALID,0,VALID,96.839,VALID,0,VALID,20.2817,VALID,73,VALID,0.535156,
1999-08-12, 00:48:01,VALID,0,VALID,96.7653,VALID,0,VALID,20.2914,VALID,93,VALID,0.616365,
1999-08-12, 00:49:00,VALID,0,VALID,96.6903,VALID,0,VALID,20.2976,VALID,101,VALID,0.863582,
1999-08-12, 00:50:00,VALID,0,VALID,96.6814,VALID,-0.0169808,VALID,20.3073,VALID,93,VALID,0.415118,
1999-08-12, 00:51:00,VALID,0,VALID,96.6458,VALID,-0.0339617,VALID,20.3204,VALID,116,VALID,0.510742,
1999-08-12, 00:52:00,VALID,0,VALID,96.5072,VALID,0,VALID,20.2976,VALID,125,VALID,0.816406,
1999-08-12, 00:53:00,VALID,0,VALID,96.469,VALID,0,VALID,20.3113,VALID,138,VALID,0.904492,
1999-08-12, 00:54:00,VALID,0,VALID,96.338,VALID,-0.0169808,VALID,20.3277,VALID,139,VALID,0.814145,
1999-08-12, 00:55:00,VALID,0,VALID,96.1257,VALID,-0.0169808,VALID,20.3274,VALID,150,VALID,0.984566,
1999-08-12, 00:56:00,VALID,0,VALID,96.057,VALID,-0.0169808,VALID,20.3075,VALID,150,VALID,0.795819,
1999-08-12, 00:57:00,VALID,0,VALID,96.0074,VALID,-0.0169808,VALID,20.3118,VALID,165,VALID,0.862048,
1999-08-12, 00:58:01,VALID,0,VALID,96.0481,VALID,-0.0169808,VALID,20.2926,VALID,166,VALID,0.989383,
1999-08-12, 00:59:01,VALID,0,VALID,96.0863,VALID,0,VALID,20.2561,VALID,170,VALID,0.605263,
1999-08-12, 01:00:00,VALID,0,VALID,96.1702,VALID,-0.0509425,VALID,20.2568,VALID,168,VALID,0.210726,
1999-08-12, 01:01:00,VALID,0,VALID,96.2058,VALID,-0.0509425,VALID,20.2571,VALID,140,VALID,0.33861,
1999-08-12, 01:02:00,VALID,0,VALID,96.1994,VALID,-0.0849042,VALID,20.2439,VALID,149,VALID,0.399239,
1999-08-12, 01:03:00,VALID,0,VALID,96.1651,VALID,-0.0169808,VALID,20.2307,VALID,167,VALID,0.596554,
1999-08-12, 01:04:00,VALID,0,VALID,96.202,VALID,-0.0679233,VALID,20.2213,VALID,179,VALID,0.594151,
1999-08-12, 01:05:00,VALID,0,VALID,96.263,VALID,-0.0849042,VALID,20.1785,VALID,202,VALID,0.626172,
1999-08-12, 01:06:00,VALID,0,VALID,96.3101,VALID,-0.0169808,VALID,20.1564,VALID,210,VALID,0.731027,
1999-08-12, 01:07:00,VALID,0,VALID,96.3253,VALID,0,VALID,20.1206,VALID,217,VALID,0.553085,
1999-08-12, 01:08:00,VALID,0,VALID,96.3635,VALID,-0.0169808,VALID,20.0952,VALID,225,VALID,0.606497,
1999-08-12, 01:09:00,VALID,0,VALID,96.4016,VALID,-0.0339617,VALID,20.0788,VALID,231,VALID,0.638514,
1999-08-12, 01:10:01,VALID,0,VALID,96.441,VALID,-0.0169808,VALID,20.0689,VALID,223,VALID,0.648438,
1999-08-12, 01:11:00,VALID,0,VALID,96.4614,VALID,-0.0679233,VALID,20.0696,VALID,231,VALID,0.737424,
1999-08-12, 01:12:00,VALID,0,VALID,96.497,VALID,-0.0169808,VALID,20.0664,VALID,237,VALID,0.506669,
1999-08-12, 01:13:00,VALID,0,VALID,96.6191,VALID,-0.0509425,VALID,20.0629,VALID,247,VALID,0.607936,
1999-08-12, 01:14:00,VALID,0,VALID,96.7805,VALID,-0.0339617,VALID,20.0724,VALID,255,VALID,0.661523,
1999-08-12, 01:15:00,VALID,0,VALID,96.8925,VALID,-0.0339617,VALID,20.0632,VALID,250,VALID,0.556799,
1999-08-12, 01:16:00,VALID,0,VALID,97.012,VALID,-0.0679233,VALID,20.0435,VALID,257,VALID,0.490543,
1999-08-12, 01:17:00,VALID,0,VALID,97.0972,VALID,-0.0849042,VALID,20.0341,VALID,300,VALID,0.642228,
1999-08-12, 01:18:00,VALID,0,VALID,97.1748,VALID,-0.0169808,VALID,20.0047,VALID,305,VALID,0.635346,
1999-08-12, 01:19:00,VALID,0,VALID,97.2854,VALID,-0.0509425,VALID,20.0047,VALID,305,VALID,0.652138,
1999-08-12, 01:20:00,VALID,0,VALID,97.354,VALID,-0.0679233,VALID,19.995,VALID,287,VALID,0.767887,
1999-08-12, 01:21:00,VALID,0,VALID,97.368,VALID,-0.0679233,VALID,19.9824,VALID,268,VALID,0.594551,
1999-08-12, 01:22:00,VALID,0,VALID,97.4011,VALID,-0.0849042,VALID,19.9923,VALID,256,VALID,0.4356,
1999-08-12, 01:23:00,VALID,0,VALID,97.3998,VALID,-0.101885,VALID,19.9789,VALID,262,VALID,0.307813,
1999-08-12, 01:24:00,VALID,0,VALID,97.4164,VALID,-0.0339617,VALID,19.9891,VALID,270,VALID,0.292146,
1999-08-12, 01:25:00,VALID,0,VALID,97.4837,VALID,-0.0849042,VALID,19.9953,VALID,273,VALID,0.00644531,
1999-08-12, 01:26:00,VALID,0,VALID,97.5359,VALID,-0.0849042,VALID,20.0184,VALID,283,VALID,0.0956003,
1999-08-12, 01:27:00,VALID,0,VALID,97.5333,VALID,-0.0849042,VALID,20.0244,VALID,289,VALID,0.0737424,
1999-08-12, 01:28:00,VALID,0,VALID,97.5079,VALID,-0.0849042,VALID,20.0241,VALID,245,VALID,0.000633446,
1999-08-12, 01:29:00,VALID,0,VALID,97.5346,VALID,-0.0339617,VALID,20.0308,VALID,274,VALID,0.16509,
1999-08-12, 01:30:01,VALID,0,VALID,97.4303,VALID,0,VALID,20.0298,VALID,236,VALID,0.321514,
1999-08-12, 01:31:00,VALID,0,VALID,97.3451,VALID,0.0169808,VALID,20.0201,VALID,246,VALID,0.450041,
1999-08-12, 01:32:00,VALID,0,VALID,97.3146,VALID,0.0169808,VALID,20.0035,VALID,241,VALID,0.574747,
1999-08-12, 01:33:00,VALID,0,VALID,97.3045,VALID,0.0679233,VALID,19.9873,VALID,231,VALID,0.782689,
1999-08-12, 01:34:00,VALID,0,VALID,97.2701,VALID,0.0339617,VALID,19.9682,VALID,231,VALID,0.816306,
1999-08-12, 01:35:00,VALID,0,VALID,97.3045,VALID,0,VALID,19.9421,VALID,232,VALID,0.782452,
1999-08-12, 01:36:00,VALID,0,VALID,97.4036,VALID,0,VALID,19.9294,VALID,229,VALID,0.616186,
1999-08-12, 01:37:00,VALID,0,VALID,97.5041,VALID,0.0169808,VALID,19.9127,VALID,225,VALID,0.549805,
1999-08-12, 01:38:00,VALID,0,VALID,97.5473,VALID,0.0169808,VALID,19.9237,VALID,216,VALID,0.460045,
1999-08-12, 01:39:00,VALID,0,VALID,97.6274,VALID,0.0169808,VALID,19.9098,VALID,202,VALID,0.531651,
1999-08-12, 01:40:00,VALID,0,VALID,97.6287,VALID,0.0169808,VALID,19.8871,VALID,175,VALID,0.450247,
1999-08-12, 01:41:00,VALID,0,VALID,97.6859,VALID,0.0169808,VALID,19.8742,VALID,171,VALID,0.590794,
1999-08-12, 01:42:00,VALID,0,VALID,97.7025,VALID,0.0339617,VALID,19.8712,VALID,163,VALID,0.752804,
1999-08-12, 01:43:00,VALID,0,VALID,97.7788,VALID,0.0509425,VALID,19.8421,VALID,174,VALID,0.675686,
1999-08-12, 01:44:00,VALID,0,VALID,97.8868,VALID,0.0509425,VALID,19.8615,VALID,188,VALID,0.76734,
1999-08-12, 01:45:00,VALID,0,VALID,97.9466,VALID,-0.0339617,VALID,19.8695,VALID,197,VALID,0.83162,
1999-08-12, 01:46:00,VALID,0,VALID,98.0115,VALID,-0.101885,VALID,19.876,VALID,213,VALID,0.778906,
1999-08-12, 01:47:00,VALID,0,VALID,98.0916,VALID,-0.0849042,VALID,19.8924,VALID,215,VALID,0.941723,
1999-08-12, 01:48:00,VALID,0,VALID,98.0954,VALID,-0.0679233,VALID,19.8988,VALID,205,VALID,0.945518,
1999-08-12, 01:49:00,VALID,0,VALID,98.0382,VALID,-0.0339617,VALID,19.8926,VALID,184,VALID,0.690104,
1999-08-12, 01:50:00,VALID,0,VALID,98.0331,VALID,-0.0679233,VALID,19.8628,VALID,176,VALID,0.978674,
1999-08-12, 01:51:00,VALID,0,VALID,98.0878,VALID,-0.0679233,VALID,19.8603,VALID,182,VALID,0.976768,
1999-08-12, 01:52:00,VALID,0,VALID,98.1183,VALID,-0.101885,VALID,19.8695,VALID,167,VALID,1.02344,
1999-08-12, 01:53:00,VALID,0,VALID,98.1501,VALID,-0.0679233,VALID,19.87,VALID,180,VALID,1.01723,
1999-08-12, 01:54:00,VALID,0,VALID,98.159,VALID,-0.0679233,VALID,19.8628,VALID,182,VALID,0.901605,
1999-08-12, 01:55:00,VALID,0,VALID,98.1742,VALID,-0.0849042,VALID,19.8635,VALID,209,VALID,0.526953,
1999-08-12, 01:56:00,VALID,0,VALID,98.1971,VALID,-0.0339617,VALID,19.8668,VALID,214,VALID,0.675781,
1999-08-12, 01:57:00,VALID,0,VALID,98.2149,VALID,-0.0679233,VALID,19.8568,VALID,232,VALID,0.942578,
1999-08-12, 01:58:00,VALID,0,VALID,98.2429,VALID,-0.0679233,VALID,19.8499,VALID,222,VALID,1.07422,
1999-08-12, 01:59:00,VALID,0,VALID,98.2493,VALID,-0.0509425,VALID,19.8571,VALID,239,VALID,0.724848,
1999-08-12, 02:00:00,VALID,0,VALID,98.2861,VALID,0.0169808,VALID,19.8459,VALID,232,VALID,0.720439,
1999-08-12, 02:01:00,VALID,0,VALID,98.3179,VALID,0.0679233,VALID,19.8583,VALID,237,VALID,0.544202,
1999-08-12, 02:02:00,VALID,0,VALID,98.3306,VALID,0.0849042,VALID,19.8583,VALID,245,VALID,0.602965,
1999-08-12, 02:03:00,VALID,0,VALID,98.3306,VALID,0.0339617,VALID,19.8556,VALID,233,VALID,0.455592,
1999-08-12, 02:04:00,VALID,0,VALID,98.3573,VALID,0.0509425,VALID,19.8454,VALID,243,VALID,0.144637,
1999-08-12, 02:05:00,VALID,0,VALID,98.3701,VALID,0.0169808,VALID,19.8586,VALID,256,VALID,0.149465,
1999-08-12, 02:06:00,VALID,0,VALID,98.3968,VALID,0.0169808,VALID,19.8586,VALID,244,VALID,0.010016,
1999-08-12, 02:07:00,VALID,0,VALID,98.412,VALID,0.0339617,VALID,19.8613,VALID,265,VALID,0.255008,
1999-08-12, 02:08:00,VALID,0,VALID,98.3701,VALID,0.0849042,VALID,19.8677,VALID,296,VALID,0.486779,
1999-08-12, 02:09:00,VALID,0,VALID,98.3739,VALID,0.0849042,VALID,19.8583,VALID,308,VALID,0.595312,
1999-08-12, 02:10:00,VALID,0,VALID,98.3866,VALID,0.0509425,VALID,19.8516,VALID,302,VALID,0.406027,
1999-08-12, 02:11:00,VALID,0,VALID,98.3942,VALID,0.0339617,VALID,19.8556,VALID,301,VALID,0.399439,
1999-08-12, 02:12:00,VALID,0,VALID,98.4146,VALID,0.0509425,VALID,19.8484,VALID,280,VALID,0.398232,
1999-08-12, 02:13:00,VALID,0,VALID,98.4018,VALID,0.0339617,VALID,19.8526,VALID,241,VALID,0.423775,
1999-08-12, 02:14:00,VALID,0,VALID,98.398,VALID,0.0169808,VALID,19.8491,VALID,240,VALID,0.127804,
1999-08-12, 02:15:00,VALID,0,VALID,98.4158,VALID,-0.0679233,VALID,19.8404,VALID,229,VALID,0,
1999-08-12, 02:16:00,VALID,0,VALID,98.3955,VALID,-0.0849042,VALID,19.827,VALID,218,VALID,0,
1999-08-12, 02:17:00,VALID,0,VALID,98.3675,VALID,-0.0849042,VALID,19.8178,VALID,195,VALID,0,
1999-08-12, 02:18:00,VALID,0,VALID,98.3701,VALID,-0.0509425,VALID,19.8153,VALID,150,VALID,0,
1999-08-12, 02:19:00,VALID,0,VALID,98.379,VALID,-0.0849042,VALID,19.7994,VALID,121,VALID,0,
1999-08-12, 02:20:00,VALID,0,VALID,98.3917,VALID,-0.101885,VALID,19.7892,VALID,109,VALID,0,
1999-08-12, 02:21:00,VALID,0,VALID,98.3968,VALID,-0.0849042,VALID,19.7989,VALID,139,VALID,0,
1999-08-12, 02:22:00,VALID,0,VALID,98.3942,VALID,-0.0509425,VALID,19.7922,VALID,128,VALID,0,
1999-08-12, 02:23:00,VALID,0,VALID,98.3675,VALID,-0.0509425,VALID,19.789,VALID,193,VALID,0,
1999-08-12, 02:24:00,VALID,0,VALID,98.3624,VALID,-0.0849042,VALID,19.7691,VALID,197,VALID,0,
1999-08-12, 02:25:00,VALID,0,VALID,98.3701,VALID,-0.0679233,VALID,19.7763,VALID,214,VALID,0,
1999-08-12, 02:26:00,VALID,0,VALID,98.3624,VALID,-0.0509425,VALID,19.7733,VALID,228,VALID,0,
1999-08-12, 02:27:00,VALID,0,VALID,98.337,VALID,-0.0509425,VALID,19.7497,VALID,203,VALID,0,
1999-08-12, 02:28:00,VALID,0,VALID,98.3027,VALID,-0.0679233,VALID,19.7435,VALID,159,VALID,0,
1999-08-12, 02:29:00,VALID,0,VALID,98.173,VALID,-0.0679233,VALID,19.695,VALID,157,VALID,0,
1999-08-12, 02:30:00,VALID,0,VALID,98.1259,VALID,-0.0169808,VALID,19.6515,VALID,157,VALID,0,
1999-08-12, 02:31:00,VALID,0,VALID,98.1335,VALID,0.0339617,VALID,19.652,VALID,157,VALID,0,
1999-08-12, 02:32:00,VALID,0,VALID,98.1526,VALID,0.0509425,VALID,19.6455,VALID,168,VALID,0,
1999-08-12, 02:33:00,VALID,0,VALID,98.2048,VALID,0.0509425,VALID,19.649,VALID,177,VALID,0,
1999-08-12, 02:34:00,VALID,0,VALID,98.2353,VALID,0.0339617,VALID,19.6455,VALID,162,VALID,0,
1999-08-12, 02:35:00,VALID,0,VALID,98.2187,VALID,0.0339617,VALID,19.6453,VALID,146,VALID,0,
1999-08-12, 02:36:00,VALID,0,VALID,98.1577,VALID,0.0509425,VALID,19.6132,VALID,138,VALID,0,
1999-08-12, 02:37:00,VALID,0,VALID,98.1475,VALID,0.0679233,VALID,19.6067,VALID,125,VALID,0,
1999-08-12, 02:38:00,VALID,0,VALID,98.1615,VALID,0.0169808,VALID,19.5938,VALID,127,VALID,0,
1999-08-12, 02:39:00,VALID,0,VALID,98.2009,VALID,0.0169808,VALID,19.6169,VALID,125,VALID,0.420072,
1999-08-12, 02:40:00,VALID,0,VALID,98.2378,VALID,0.0339617,VALID,19.6065,VALID,136,VALID,0.880609,
1999-08-12, 02:41:00,VALID,0,VALID,98.2518,VALID,0.0509425,VALID,19.6197,VALID,139,VALID,0.880469,
1999-08-12, 02:42:00,VALID,0,VALID,98.2365,VALID,0.0169808,VALID,19.603,VALID,142,VALID,0.951786,
1999-08-12, 02:43:00,VALID,0,VALID,98.2989,VALID,0.0509425,VALID,19.6062,VALID,138,VALID,1.05188,
1999-08-12, 02:44:00,VALID,0,VALID,98.3154,VALID,0.0509425,VALID,19.6162,VALID,140,VALID,0.819285,
1999-08-12, 02:45:00,VALID,0,VALID,98.3408,VALID,-0.0339617,VALID,19.6172,VALID,150,VALID,0.65625,
1999-08-12, 02:46:00,VALID,0,VALID,98.3573,VALID,-0.0509425,VALID,19.6115,VALID,155,VALID,0.557091,
1999-08-12, 02:47:00,VALID,0,VALID,98.4057,VALID,-0.0339617,VALID,19.6174,VALID,160,VALID,0.46189,
1999-08-12, 02:48:00,VALID,0,VALID,98.4069,VALID,-0.0509425,VALID,19.6244,VALID,144,VALID,0.391768,
1999-08-12, 02:49:00,VALID,0,VALID,98.4235,VALID,-0.0509425,VALID,19.6405,VALID,128,VALID,0.346012,
1999-08-12, 02:50:00,VALID,0,VALID,98.4349,VALID,-0.0339617,VALID,19.6336,VALID,118,VALID,0.454688,
1999-08-12, 02:51:00,VALID,0,VALID,98.4425,VALID,-0.0339617,VALID,19.6502,VALID,125,VALID,0.299198,
1999-08-12, 02:52:00,VALID,0,VALID,98.4451,VALID,-0.0509425,VALID,19.6433,VALID,118,VALID,0.547286,
1999-08-12, 02:53:00,VALID,0,VALID,98.4553,VALID,-0.0509425,VALID,19.653,VALID,143,VALID,0.392829,
1999-08-12, 02:54:00,VALID,0,VALID,98.4692,VALID,-0.0509425,VALID,19.6664,VALID,141,VALID,0.276182,
1999-08-12, 02:55:00,VALID,0,VALID,98.4489,VALID,-0.0849042,VALID,19.6696,VALID,141,VALID,0.357525,
1999-08-12, 02:56:00,VALID,0,VALID,98.4196,VALID,-0.0849042,VALID,19.6632,VALID,156,VALID,0.307155,
1999-08-12, 02:57:00,VALID,0,VALID,98.365,VALID,-0.0509425,VALID,19.6368,VALID,180,VALID,0.432492,
1999-08-12, 02:58:00,VALID,0,VALID,98.3548,VALID,-0.0509425,VALID,19.6177,VALID,184,VALID,0.521959,
1999-08-12, 02:59:00,VALID,0,VALID,98.3751,VALID,-0.101885,VALID,19.6047,VALID,184,VALID,0.579687,
1999-08-12, 03:00:00,VALID,0,VALID,98.3929,VALID,-0.0849042,VALID,19.5886,VALID,188,VALID,0.557977,
1999-08-12, 03:01:00,VALID,0,VALID,98.4349,VALID,-0.0169808,VALID,19.5752,VALID,199,VALID,0.580859,
1999-08-12, 03:02:00,VALID,0,VALID,98.4781,VALID,-0.0509425,VALID,19.5918,VALID,196,VALID,0.751028,
1999-08-12, 03:03:00,VALID,0,VALID,98.4794,VALID,-0.0509425,VALID,19.5786,VALID,196,VALID,0.803354,
1999-08-12, 03:04:00,VALID,0,VALID,98.4985,VALID,-0.0679233,VALID,19.5886,VALID,193,VALID,0.73522,
1999-08-12, 03:05:00,VALID,0,VALID,98.5137,VALID,-0.0339617,VALID,19.5821,VALID,191,VALID,0.742188,
1999-08-12, 03:06:00,VALID,0,VALID,98.529,VALID,-0.0849042,VALID,19.5891,VALID,195,VALID,0.889022,
1999-08-12, 03:07:00,VALID,0,VALID,98.5659,VALID,-0.0509425,VALID,19.5829,VALID,196,VALID,1.09827,
1999-08-12, 03:08:00,VALID,0,VALID,98.5583,VALID,-0.0679233,VALID,19.5829,VALID,194,VALID,0.721917,
1999-08-12, 03:09:00,VALID,0,VALID,98.59,VALID,-0.0509425,VALID,19.5598,VALID,194,VALID,0.763775,
1999-08-12, 03:10:00,VALID,0,VALID,98.6028,VALID,-0.0849042,VALID,19.563,VALID,184,VALID,0.812099,
1999-08-12, 03:11:00,VALID,0,VALID,98.5964,VALID,-0.0679233,VALID,19.5598,VALID,195,VALID,0.978165,
1999-08-12, 03:12:00,VALID,0,VALID,98.6104,VALID,-0.0509425,VALID,19.5501,VALID,191,VALID,0.890625,
1999-08-12, 03:13:00,VALID,0,VALID,98.6167,VALID,-0.0509425,VALID,19.5505,VALID,200,VALID,0.819922,
1999-08-12, 03:14:00,VALID,0,VALID,98.6473,VALID,-0.0169808,VALID,19.5369,VALID,197,VALID,0.56317,
1999-08-12, 03:15:00,VALID,0,VALID,98.6485,VALID,-0.0849042,VALID,19.5471,VALID,200,VALID,0.653245,
1999-08-12, 03:16:00,VALID,0,VALID,98.66,VALID,-0.0339617,VALID,19.5369,VALID,214,VALID,0.515008,
1999-08-12, 03:17:00,VALID,0,VALID,98.6524,VALID,-0.0339617,VALID,19.5304,VALID,214,VALID,0.863176,
1999-08-12, 03:18:00,VALID,0,VALID,98.6613,VALID,-0.0169808,VALID,19.5341,VALID,208,VALID,0.79347,
1999-08-12, 03:19:00,VALID,0,VALID,98.6714,VALID,-0.0339617,VALID,19.5237,VALID,207,VALID,0.838224,
1999-08-12, 03:20:00,VALID,0,VALID,98.6854,VALID,-0.0679233,VALID,19.5307,VALID,212,VALID,0.811928,
1999-08-12, 03:21:01,VALID,0,VALID,98.6867,VALID,-0.0339617,VALID,19.5374,VALID,218,VALID,0.730263,
1999-08-12, 03:22:00,VALID,0,VALID,98.7058,VALID,-0.0339617,VALID,19.5302,VALID,207,VALID,0.606836,
1999-08-12, 03:23:00,VALID,0,VALID,98.7121,VALID,-0.0339617,VALID,19.5274,VALID,215,VALID,1.02787,
1999-08-12, 03:24:00,VALID,0,VALID,98.721,VALID,-0.0339617,VALID,19.5438,VALID,209,VALID,0.898026,
1999-08-12, 03:25:00,VALID,0,VALID,98.6905,VALID,-0.0339617,VALID,19.5205,VALID,212,VALID,0.804888,
1999-08-12, 03:26:00,VALID,0,VALID,98.6841,VALID,-0.0339617,VALID,19.5143,VALID,204,VALID,0.90266,
1999-08-12, 03:27:00,VALID,0,VALID,98.6752,VALID,-0.0169808,VALID,19.511,VALID,215,VALID,1.02714,
1999-08-12, 03:28:00,VALID,0,VALID,98.66,VALID,-0.0509425,VALID,19.5051,VALID,198,VALID,0.984375,
1999-08-12, 03:29:00,VALID,0,VALID,98.6384,VALID,-0.0339617,VALID,19.4725,VALID,197,VALID,0.872796,
1999-08-12, 03:30:00,VALID,0,VALID,98.6511,VALID,-0.0509425,VALID,19.4727,VALID,212,VALID,0.656461,
1999-08-12, 03:31:00,VALID,0,VALID,98.6485,VALID,0,VALID,19.4626,VALID,187,VALID,0.682813,
1999-08-12, 03:32:01,VALID,0,VALID,98.6142,VALID,-0.0339617,VALID,19.4399,VALID,170,VALID,0.427837,
1999-08-12, 03:33:00,VALID,0,VALID,98.6307,VALID,-0.0169808,VALID,19.4335,VALID,171,VALID,0.0880859,
1999-08-12, 03:34:00,VALID,0,VALID,98.5799,VALID,-0.0679233,VALID,19.4307,VALID,170,VALID,0.450452,
1999-08-12, 03:35:00,VALID,0,VALID,98.571,VALID,0,VALID,19.421,VALID,184,VALID,0.466273,
1999-08-12, 03:36:00,VALID,0,VALID,98.4286,VALID,-0.0679233,VALID,19.3788,VALID,183,VALID,0.963894,
1999-08-12, 03:37:00,VALID,0,VALID,98.3688,VALID,-0.0679233,VALID,19.3495,VALID,183,VALID,0.803043,
1999-08-12, 03:38:00,VALID,0,VALID,98.3103,VALID,-0.0509425,VALID,19.3532,VALID,215,VALID,0.90004,
1999-08-12, 03:39:00,VALID,0,VALID,98.2709,VALID,-0.0169808,VALID,19.3398,VALID,199,VALID,0.590255,
1999-08-12, 03:40:00,VALID,0,VALID,98.1539,VALID,-0.0679233,VALID,19.3467,VALID,186,VALID,0.981841,
1999-08-12, 03:41:00,VALID,0,VALID,98.0661,VALID,-0.0509425,VALID,19.3435,VALID,195,VALID,0.983553,
1999-08-12, 03:42:00,VALID,0,VALID,97.9504,VALID,-0.0169808,VALID,19.3465,VALID,197,VALID,0.96274,
1999-08-12, 03:43:01,VALID,0,VALID,97.9072,VALID,-0.0679233,VALID,19.3599,VALID,209,VALID,0.529447,
1999-08-12, 03:44:00,VALID,0,VALID,97.808,VALID,-0.0509425,VALID,19.3559,VALID,217,VALID,0.541266,
1999-08-12, 03:45:00,VALID,0,VALID,97.7317,VALID,-0.0339617,VALID,19.3728,VALID,224,VALID,0.888281,
1999-08-12, 03:46:00,VALID,0,VALID,97.6427,VALID,-0.0339617,VALID,19.3663,VALID,220,VALID,0.889732,
1999-08-12, 03:47:00,VALID,0,VALID,97.5244,VALID,-0.0169808,VALID,19.3795,VALID,233,VALID,0.876803,
1999-08-12, 03:48:00,VALID,0,VALID,97.4888,VALID,-0.0169808,VALID,19.3659,VALID,228,VALID,0.589021,
1999-08-12, 03:49:00,VALID,0,VALID,97.4736,VALID,-0.0509425,VALID,19.3758,VALID,245,VALID,0.252745,
1999-08-12, 03:50:00,VALID,0,VALID,97.4596,VALID,-0.0849042,VALID,19.3823,VALID,264,VALID,0.148838,
1999-08-12, 03:51:00,VALID,0,VALID,97.4291,VALID,-0.0679233,VALID,19.3825,VALID,330,VALID,0.502668,
1999-08-12, 03:52:00,VALID,0,VALID,97.4927,VALID,-0.0169808,VALID,19.4019,VALID,341,VALID,0.407774,
1999-08-12, 03:53:01,VALID,0,VALID,97.541,VALID,-0.0679233,VALID,19.3922,VALID,355,VALID,0.710321,
1999-08-12, 03:54:01,VALID,0,VALID,97.6363,VALID,-0.0339617,VALID,19.3852,VALID,322,VALID,0.454883,
1999-08-12, 03:55:00,VALID,0,VALID,97.7381,VALID,-0.0509425,VALID,19.3922,VALID,331,VALID,0.353252,
1999-08-12, 03:56:00,VALID,0,VALID,97.8398,VALID,-0.0169808,VALID,19.4021,VALID,315,VALID,0.17352,
1999-08-12, 03:57:00,VALID,0,VALID,97.9072,VALID,-0.0509425,VALID,19.3984,VALID,323,VALID,0.373197,
1999-08-12, 03:58:00,VALID,0,VALID,97.9746,VALID,-0.0169808,VALID,19.392,VALID,315,VALID,0.0732686,
1999-08-12, 03:59:00,VALID,0,VALID,97.9771,VALID,-0.0169808,VALID,19.3688,VALID,314,VALID,0,
1999-08-12, 04:00:00,VALID,0,VALID,98.056,VALID,0.0169808,VALID,19.3815,VALID,308,VALID,0,
1999-08-12, 04:01:00,VALID,0,VALID,98.0941,VALID,0.0339617,VALID,19.3875,VALID,308,VALID,0.392628,